Weather History for Pueblo, CO

Change the Weather History Date:

Tuesday, May 28, 2013

  Actual Average Record
Temperature  
Mean Temperature 70 °F 64 °F  
Max Temperature 88 °F 80 °F 97 °F (1974)
Min Temperature 52 °F 48 °F 35 °F (1915)
Degree Days  
Heating Degree Days 0 3  
Month to date heating degree days 191 165  
Since 1 July heating degree days 5704 5605  
Cooling Degree Days 5 2  
Month to date cooling degree days 68 24  
Year to date cooling degree days 69 26  
Growing Degree Days 20 (Base 50)    
Moisture  
Dew Point 34 °F    
Average Humidity 34    
Maximum Humidity 59    
Minimum Humidity 9    
Precipitation  
Precipitation 0.00 in 0.05 in 0.59 in (1983)
Month to date precipitation 0.73 1.37  
Year to date precipitation 1.93 4.35  
Snow  
Snow 0.00 in 0.00 in 0.00 in (2002)
Month to date snowfall 0.6 0.5  
Since 1 July snowfall 24.4 31.8  
Snow Depth 0.00 in    
Sea Level Pressure  
Sea Level Pressure 29.50 in    
Wind  
Wind Speed 9 mph (SE)    
Max Wind Speed 26 mph    
Max Gust Speed 33 mph    
Visibility 10 miles    
Events      
T = Trace of Precipitation, MM = Missing Value Source: NWS Daily Summary

Daily Weather History Graph

Daily Weather History Graph

Search for Another Location

Airport:

Trip Planner

Search our weather history database for the weather conditions in past years. The results will help you decide how hot, cold, wet, or windy it might be!

Date:

Astronomy

May. 28, 2013 Rise Set
Actual Time 5:37 AM MDT 8:13 PM MDT
Civil Twilight 5:07 AM MDT 8:43 PM MDT
Nautical Twilight 4:28 AM MDT 9:22 PM MDT
Astronomical Twilight 3:46 AM MDT 10:05 PM MDT
Moon 11:40 PM MDT (5/28) 9:27 AM MDT (5/28)
Length of Visible Light 15h 36m
Length of Day
14h 35m
Waning Gibbous, 82% of the Moon is Illuminated
May 28
Waning Gibbous
May 31
Last Quarter
Jun 8
New
Jun 16
First Quarter
Jun 23
Full

Hourly Weather History & Observations

Time (MDT) Temp. Dew Point Humidity Pressure Visibility Wind Dir Wind Speed Gust Speed Precip Events Conditions
12:53 AM 64.0 °F 44.1 °F 48% 29.61 in 10.0 mi East 12.7 mph - N/A   Clear
1:53 AM 60.1 °F 41.0 °F 49% 29.62 in 10.0 mi East 6.9 mph - N/A   Clear
2:53 AM 55.9 °F 37.9 °F 51% 29.65 in 10.0 mi North 3.5 mph - N/A   Clear
3:53 AM 55.0 °F 37.9 °F 53% 29.66 in 10.0 mi NNW 4.6 mph - N/A   Partly Cloudy
4:53 AM 53.1 °F 39.0 °F 59% 29.66 in 10.0 mi NNW 6.9 mph - N/A   Clear
5:53 AM 53.1 °F 39.0 °F 59% 29.65 in 10.0 mi Calm Calm - N/A   Clear
6:53 AM 57.9 °F 42.1 °F 56% 29.64 in 10.0 mi West 6.9 mph - N/A   Clear
7:53 AM 63.0 °F 46.9 °F 56% 29.63 in 10.0 mi WSW 4.6 mph - N/A   Clear
8:53 AM 66.0 °F 50.0 °F 56% 29.62 in 10.0 mi Calm Calm - N/A   Clear
9:53 AM 69.1 °F 50.0 °F 51% 29.62 in 10.0 mi Variable 4.6 mph - N/A   Clear
10:53 AM 73.0 °F 50.0 °F 44% 29.59 in 10.0 mi SE 9.2 mph - N/A   Clear
11:53 AM 79.0 °F 48.0 °F 34% 29.54 in 10.0 mi ESE 16.1 mph 20.7 mph N/A   Clear
12:53 PM 82.0 °F 41.0 °F 23% 29.51 in 10.0 mi East 15.0 mph 25.3 mph N/A   Clear
1:53 PM 84.0 °F 34.0 °F 17% 29.48 in 10.0 mi SE 10.4 mph 23.0 mph N/A   Partly Cloudy
2:53 PM 84.9 °F 28.9 °F 13% 29.44 in 10.0 mi ESE 11.5 mph 26.5 mph N/A   Clear
3:53 PM 88.0 °F 26.1 °F 11% 29.39 in 10.0 mi SE 23.0 mph 27.6 mph N/A   Clear
4:53 PM 87.1 °F 26.1 °F 11% 29.38 in 10.0 mi SE 15.0 mph 21.9 mph N/A   Clear
5:53 PM 86.0 °F 27.0 °F 12% 29.35 in 10.0 mi ESE 17.3 mph - N/A   Clear
6:53 PM 82.0 °F 34.0 °F 18% 29.34 in 10.0 mi ESE 8.1 mph - N/A   Clear
7:53 PM 77.0 °F 32.0 °F 19% 29.35 in 10.0 mi West 6.9 mph - N/A   Clear
8:53 PM 71.1 °F 24.1 °F 17% 29.37 in 10.0 mi WNW 10.4 mph - N/A   Clear
9:53 PM 70.0 °F 17.1 °F 13% 29.38 in 10.0 mi West 8.1 mph - N/A   Clear
10:53 PM 68.0 °F 12.9 °F 12% 29.38 in 10.0 mi West 6.9 mph - N/A   Clear
11:53 PM 72.0 °F 8.1 °F 8% 29.36 in 10.0 mi SW 11.5 mph - N/A   Clear